This is the latest recevied weather packets stored in our database for station/object SA6BET-2. If no packets are shown the sender has not sent any weather packets the latest 10 day(s).
| Time | Temp. | Humidity | Pressure | Rain* | Wind** | Luminosity | Snow |
|---|---|---|---|---|---|---|---|
| 1788030430 | 25.56° C | 100% | 1019.6 hPa | - | - | - | - |
| 1788029530 | 26.11° C | 100% | 1019.5 hPa | - | - | - | - |
| 1788028629 | 25.56° C | 100% | 1019.4 hPa | - | - | - | - |
| 1788027729 | 26.67° C | 100% | 1019.4 hPa | - | - | - | - |
| 1788026829 | 26.67° C | 100% | 1019.4 hPa | - | - | - | - |
| 1788025929 | 26.67° C | 100% | 1019.4 hPa | - | - | - | - |
| 1788025029 | 27.78° C | 100% | 1019.3 hPa | - | - | - | - |
| 1788024129 | 26.67° C | 100% | 1019.5 hPa | - | - | - | - |
| 1788023226 | 27.78° C | 100% | 1019.6 hPa | - | - | - | - |
| 1788022326 | 28.33° C | 100% | 1019.4 hPa | - | - | - | - |
| 1788021426 | 28.33° C | 100% | 1019.3 hPa | - | - | - | - |
| 1788020525 | 29.44° C | 100% | 1019.3 hPa | - | - | - | - |
| 1788019625 | 30.56° C | 100% | 1019.5 hPa | - | - | - | - |
| 1788018725 | 30.56° C | 100% | 1019.7 hPa | - | - | - | - |
| 1788017835 | 32.22° C | 100% | 1019.6 hPa | - | - | - | - |
| 1788016935 | 31.11° C | 100% | 1019.8 hPa | - | - | - | - |
| 1788016035 | 32.22° C | 100% | 1019.9 hPa | - | - | - | - |
| 1788015135 | 31.11° C | 100% | 1020 hPa | - | - | - | - |
| 1788014234 | 30.56° C | 100% | 1020.3 hPa | - | - | - | - |
| 1788013334 | 30.56° C | 100% | 1020.3 hPa | - | - | - | - |
| 1788012434 | 30.56° C | 100% | 1020.4 hPa | - | - | - | - |
| 1788011534 | 33.33° C | 100% | 1020.6 hPa | - | - | - | - |
| 1788010634 | 32.78° C | 100% | 1020.7 hPa | - | - | - | - |
| 1788009733 | 32.78° C | 100% | 1020.9 hPa | - | - | - | - |
| 1788008833 | 30.56° C | 100% | 1021.1 hPa | - | - | - | - |
* Rain since midnight (hover to see other rain measurements)
** Current wind speed in m/s (hover to see current wind gust speed)